CCA4123 ZBAA-ZULS

Flight info

Callsign CCA4123
Flight time N/A
Altitude 34100
Route BOTPU W47 LOVRA W276 ANRUG W279 ONEBA G212 JTG W236 CTU B213 IGELA W522 IGDAG
Aircraft A319/M-SDE2E3GHIJ3J4J5LM1ORWXY/LB1D1

Departure

Time 2026-05-07 04:47
Airport Beijing Capital International Airport (ZBAA)

Arrival

Time N/A
Airport Lhasa Gonggar International Airport (ZULS)
Time Latitude Longitude Altitude Speed Heading
2026-05-07 04:08 40.06017 116.60351 124 ft 0 kts 263°
2026-05-07 04:39 40.06020 116.60389 120 ft 4 kts 263°
2026-05-07 04:40 40.06022 116.60410 122 ft 2 kts 263°
2026-05-07 04:40 40.06028 116.60439 126 ft 4 kts 231°
2026-05-07 04:40 40.06048 116.60455 121 ft 4 kts 184°
2026-05-07 04:40 40.06065 116.60455 123 ft 0 kts 173°
2026-05-07 04:43 40.06062 116.60455 120 ft 2 kts 173°
2026-05-07 04:44 40.06038 116.60459 123 ft 5 kts 173°
2026-05-07 04:44 40.05988 116.60467 120 ft 9 kts 173°
2026-05-07 04:44 40.05914 116.60479 120 ft 12 kts 173°
2026-05-07 04:44 40.05817 116.60494 122 ft 16 kts 173°
2026-05-07 04:45 40.05760 116.60489 120 ft 7 kts 218°
2026-05-07 04:45 40.05747 116.60421 120 ft 9 kts 263°
2026-05-07 04:45 40.05738 116.60336 122 ft 10 kts 263°
2026-05-07 04:45 40.05729 116.60236 121 ft 12 kts 263°
2026-05-07 04:46 40.05718 116.60122 119 ft 13 kts 263°
2026-05-07 04:46 40.05723 116.60001 122 ft 13 kts 306°
2026-05-07 04:46 40.05785 116.59978 120 ft 9 kts 353°
2026-05-07 04:46 40.05953 116.59951 120 ft 55 kts 353°
2026-05-07 04:47 40.06550 116.59858 119 ft 116 kts 353°
2026-05-07 04:47 40.07529 116.59707 123 ft 164 kts 353°
2026-05-07 04:47 40.08691 116.59531 580 ft 169 kts 354°
2026-05-07 04:47 40.09774 116.59361 1147 ft 169 kts 355°
2026-05-07 04:48 40.10936 116.59176 1792 ft 169 kts 355°
2026-05-07 04:48 40.12121 116.58985 2461 ft 170 kts 356°
2026-05-07 04:48 40.13291 116.58798 3119 ft 168 kts 354°
2026-05-07 04:48 40.14477 116.58613 3515 ft 184 kts 353°
2026-05-07 04:49 40.15814 116.58404 3833 ft 203 kts 353°
2026-05-07 04:49 40.17297 116.58169 4153 ft 227 kts 352°
2026-05-07 04:49 40.18921 116.57907 4729 ft 240 kts 352°
2026-05-07 04:49 40.20616 116.57641 5564 ft 244 kts 353°
2026-05-07 04:50 40.22290 116.57381 6413 ft 246 kts 352°
2026-05-07 04:50 40.23980 116.57006 7230 ft 250 kts 344°
2026-05-07 04:50 40.25595 116.56106 8017 ft 255 kts 330°
2026-05-07 04:50 40.27012 116.54682 8792 ft 260 kts 320°
2026-05-07 04:51 40.28369 116.53090 9567 ft 263 kts 321°
2026-05-07 04:51 40.29726 116.51466 10334 ft 267 kts 315°
2026-05-07 04:51 40.30826 116.49480 11077 ft 273 kts 301°
2026-05-07 04:51 40.31519 116.47085 11521 ft 295 kts 285°
2026-05-07 04:52 40.31693 116.44290 11704 ft 322 kts 273°
2026-05-07 04:52 40.31683 116.41254 11864 ft 345 kts 273°
2026-05-07 04:52 40.31674 116.38032 12140 ft 360 kts 273°
2026-05-07 04:52 40.31668 116.34720 12731 ft 365 kts 273°
2026-05-07 04:53 40.31664 116.31377 13400 ft 367 kts 273°
2026-05-07 04:53 40.31660 116.28026 14062 ft 369 kts 274°
2026-05-07 04:53 40.31657 116.24666 14746 ft 370 kts 273°
2026-05-07 04:53 40.31655 116.21277 15418 ft 372 kts 273°
2026-05-07 04:54 40.31650 116.17879 16011 ft 374 kts 273°
2026-05-07 04:54 40.31643 116.14501 16648 ft 375 kts 273°
2026-05-07 04:54 40.31635 116.11107 17266 ft 376 kts 273°
2026-05-07 04:54 40.31626 116.07688 17874 ft 376 kts 273°
2026-05-07 04:55 40.31616 116.04261 18474 ft 377 kts 272°
2026-05-07 04:55 40.31605 116.00813 19008 ft 378 kts 272°
2026-05-07 04:55 40.31594 115.97365 19489 ft 380 kts 272°
2026-05-07 04:55 40.31582 115.93887 19990 ft 382 kts 272°
2026-05-07 04:56 40.31570 115.90402 20461 ft 384 kts 272°
2026-05-07 04:56 40.31556 115.86896 20918 ft 385 kts 272°
2026-05-07 04:56 40.31541 115.83386 21380 ft 387 kts 272°
2026-05-07 04:56 40.31525 115.79848 21822 ft 388 kts 271°
2026-05-07 04:57 40.31281 115.76323 22220 ft 393 kts 261°
2026-05-07 04:57 40.30449 115.72927 22615 ft 400 kts 249°
2026-05-07 04:57 40.28997 115.69737 23018 ft 409 kts 237°
2026-05-07 04:57 40.27025 115.67053 23395 ft 420 kts 225°
2026-05-07 04:58 40.24545 115.64961 23775 ft 430 kts 213°
2026-05-07 04:58 40.21878 115.63176 24161 ft 432 kts 213°
2026-05-07 04:58 40.19194 115.61379 24540 ft 433 kts 213°
2026-05-07 04:58 40.16516 115.59581 24881 ft 434 kts 214°
2026-05-07 04:59 40.13828 115.57773 25214 ft 435 kts 214°
2026-05-07 04:59 40.11101 115.55939 25548 ft 436 kts 214°
2026-05-07 04:59 40.08444 115.54152 25837 ft 437 kts 214°
2026-05-07 04:59 40.05815 115.52199 26111 ft 431 kts 221°
2026-05-07 05:00 40.03512 115.49669 26402 ft 423 kts 232°
2026-05-07 05:00 40.01710 115.46742 26641 ft 416 kts 242°
2026-05-07 05:00 40.00369 115.43442 26894 ft 411 kts 251°
2026-05-07 05:00 39.99527 115.39898 27169 ft 408 kts 261°
2026-05-07 05:01 39.99208 115.36259 27627 ft 401 kts 270°
2026-05-07 05:01 39.99328 115.32650 28131 ft 396 kts 274°
2026-05-07 05:01 39.99517 115.29076 28600 ft 393 kts 273°
2026-05-07 05:01 39.99697 115.25544 29055 ft 389 kts 273°
2026-05-07 05:02 39.99870 115.22032 29495 ft 386 kts 273°
2026-05-07 05:02 40.00040 115.18552 29822 ft 384 kts 272°
2026-05-07 05:02 40.00206 115.15092 30238 ft 382 kts 273°
2026-05-07 05:02 40.00375 115.11620 30455 ft 385 kts 274°
2026-05-07 05:03 40.00547 115.08118 30647 ft 387 kts 273°
2026-05-07 05:03 40.00720 115.04607 30953 ft 388 kts 274°
2026-05-07 05:03 40.00898 115.01100 31275 ft 388 kts 274°
2026-05-07 05:03 40.01078 114.97590 31595 ft 387 kts 274°
2026-05-07 05:04 40.01252 114.94083 31909 ft 387 kts 274°
2026-05-07 05:04 40.01420 114.90589 32232 ft 386 kts 274°
2026-05-07 05:04 40.01584 114.87101 32560 ft 385 kts 274°
2026-05-07 05:04 40.01748 114.83606 32867 ft 384 kts 274°
2026-05-07 05:05 40.01914 114.80133 33182 ft 383 kts 274°
2026-05-07 05:05 40.02080 114.76664 33487 ft 382 kts 274°
2026-05-07 05:05 40.02242 114.73265 33805 ft 381 kts 274°
2026-05-07 05:05 40.02402 114.69813 34123 ft 379 kts 274°
2026-05-07 05:06 40.02561 114.66384 34260 ft 379 kts 274°
2026-05-07 05:06 40.02720 114.62941 34302 ft 380 kts 274°
2026-05-07 05:06 40.03033 114.56056 34302 ft 380 kts 274°
2026-05-07 05:07 40.03339 114.49182 34318 ft 379 kts 274°
2026-05-07 05:07 40.03638 114.42320 34311 ft 379 kts 274°
2026-05-07 05:08 40.03938 114.35462 34308 ft 378 kts 274°
2026-05-07 05:08 40.04239 114.28613 34311 ft 378 kts 274°
2026-05-07 05:09 40.04530 114.21775 34318 ft 378 kts 273°
2026-05-07 05:09 40.04807 114.14938 34322 ft 377 kts 273°
2026-05-07 05:10 40.05213 114.08110 34329 ft 377 kts 275°
2026-05-07 05:10 40.05762 114.01318 34328 ft 376 kts 276°
2026-05-07 05:11 40.06299 113.94521 34328 ft 376 kts 275°
2026-05-07 05:11 40.06799 113.87772 34331 ft 376 kts 275°
2026-05-07 05:12 40.07289 113.80978 34331 ft 376 kts 275°
2026-05-07 05:12 40.07766 113.74197 34330 ft 376 kts 275°
2026-05-07 05:13 40.08245 113.67398 34331 ft 377 kts 275°
2026-05-07 05:13 40.08722 113.60577 34331 ft 377 kts 275°
2026-05-07 05:14 40.09201 113.53758 34332 ft 377 kts 275°
2026-05-07 05:14 40.09677 113.46922 34330 ft 378 kts 275°
2026-05-07 05:15 40.10148 113.40072 34333 ft 379 kts 276°
2026-05-07 05:15 40.10612 113.33213 34334 ft 380 kts 276°
2026-05-07 05:16 40.11075 113.26338 34335 ft 380 kts 276°
2026-05-07 05:16 40.11531 113.19452 34338 ft 381 kts 276°
2026-05-07 05:17 40.11985 113.12549 34342 ft 382 kts 276°
2026-05-07 05:17 40.12439 113.05613 34345 ft 382 kts 276°
2026-05-07 05:18 40.12887 112.98703 34352 ft 383 kts 276°
2026-05-07 05:18 40.13339 112.91748 34364 ft 384 kts 276°
2026-05-07 05:19 40.13776 112.84802 34371 ft 384 kts 276°
2026-05-07 05:19 40.14215 112.77852 34374 ft 384 kts 276°
2026-05-07 05:20 40.14650 112.70894 34377 ft 384 kts 276°
2026-05-07 05:20 40.15079 112.63950 34376 ft 383 kts 276°
2026-05-07 05:21 40.15715 112.53565 34390 ft 384 kts 276°
2026-05-07 05:22 40.15961 112.46606 34383 ft 385 kts 268°
2026-05-07 05:22 40.14621 112.39771 34383 ft 393 kts 256°
2026-05-07 05:23 40.12747 112.33054 34379 ft 393 kts 256°
2026-05-07 05:23 40.10874 112.26354 34377 ft 392 kts 256°
2026-05-07 05:24 40.09005 112.19668 34374 ft 391 kts 256°
2026-05-07 05:24 40.07137 112.13003 34373 ft 391 kts 256°
2026-05-07 05:25 40.05269 112.06344 34375 ft 390 kts 256°
2026-05-07 05:25 40.03395 111.99693 34375 ft 390 kts 256°
2026-05-07 05:26 40.01524 111.93049 34375 ft 390 kts 256°
2026-05-07 05:26 39.99548 111.86455 34371 ft 395 kts 250°
2026-05-07 05:26 39.98046 111.83401 34370 ft 406 kts 240°
2026-05-07 05:27 39.96066 111.80709 34368 ft 419 kts 230°
2026-05-07 05:27 39.91570 111.75844 34357 ft 420 kts 230°
2026-05-07 05:28 39.87076 111.70984 34356 ft 420 kts 230°
2026-05-07 05:28 39.82580 111.66123 34361 ft 420 kts 230°
2026-05-07 05:29 39.78848 111.62085 34357 ft 420 kts 230°
2026-05-07 05:29 39.74356 111.57236 34364 ft 420 kts 230°
2026-05-07 05:30 39.69866 111.52406 34362 ft 418 kts 230°
2026-05-07 05:30 39.65380 111.47589 34363 ft 418 kts 230°
2026-05-07 05:31 39.60897 111.42781 34364 ft 418 kts 230°
2026-05-07 05:31 39.56411 111.37990 34368 ft 417 kts 230°
2026-05-07 05:32 39.51938 111.33214 34367 ft 416 kts 230°
2026-05-07 05:32 39.47476 111.28453 34363 ft 415 kts 230°
2026-05-07 05:33 39.43028 111.23707 34357 ft 415 kts 230°
2026-05-07 05:33 39.38573 111.18966 34355 ft 414 kts 230°
2026-05-07 05:34 39.34125 111.14253 34352 ft 414 kts 230°
2026-05-07 05:34 39.29670 111.09554 34354 ft 413 kts 230°
2026-05-07 05:35 39.25231 111.04861 34352 ft 412 kts 230°
2026-05-07 05:35 39.20826 111.00167 34349 ft 407 kts 233°
2026-05-07 05:35 39.18958 110.97520 34351 ft 393 kts 243°
2026-05-07 05:36 39.17570 110.94558 34347 ft 381 kts 253°
2026-05-07 05:36 39.16242 110.88143 34341 ft 366 kts 270°
2026-05-07 05:37 39.16408 110.81638 34341 ft 364 kts 276°
2026-05-07 05:37 39.16719 110.75123 34337 ft 365 kts 276°
2026-05-07 05:38 39.17019 110.68601 34338 ft 365 kts 276°
2026-05-07 05:38 39.17321 110.62074 34341 ft 365 kts 276°
2026-05-07 05:39 39.17620 110.55549 34342 ft 365 kts 276°
2026-05-07 05:39 39.17921 110.49015 34339 ft 365 kts 276°
2026-05-07 05:40 39.18218 110.42483 34340 ft 366 kts 276°
2026-05-07 05:40 39.18506 110.35936 34337 ft 365 kts 276°
2026-05-07 05:41 39.18782 110.29394 34337 ft 366 kts 276°
2026-05-07 05:41 39.19069 110.22844 34339 ft 366 kts 276°
2026-05-07 05:42 39.19352 110.16322 34338 ft 366 kts 276°
2026-05-07 05:42 39.19655 110.09770 34339 ft 366 kts 276°
2026-05-07 05:43 39.19982 110.03217 34338 ft 367 kts 276°
2026-05-07 05:43 39.20301 109.96645 34340 ft 367 kts 276°
2026-05-07 05:44 39.20614 109.90085 34341 ft 367 kts 276°
2026-05-07 05:44 39.20916 109.83523 34340 ft 366 kts 276°
2026-05-07 05:45 39.21219 109.76964 34340 ft 367 kts 276°
2026-05-07 05:45 39.21516 109.70397 34342 ft 367 kts 276°
2026-05-07 05:46 39.21806 109.63832 34344 ft 367 kts 276°
2026-05-07 05:46 39.21990 109.57251 34343 ft 371 kts 268°
2026-05-07 05:46 39.21305 109.54005 34344 ft 384 kts 252°
2026-05-07 05:47 39.19757 109.51112 34344 ft 405 kts 234°
2026-05-07 05:47 39.17378 109.48966 34341 ft 435 kts 215°
2026-05-07 05:47 39.14399 109.47833 34338 ft 454 kts 205°
2026-05-07 05:48 39.08161 109.46269 34331 ft 458 kts 202°
2026-05-07 05:48 39.01870 109.44876 34332 ft 459 kts 202°
2026-05-07 05:49 38.95604 109.43401 34336 ft 457 kts 203°
2026-05-07 05:49 38.89370 109.41850 34346 ft 456 kts 204°
2026-05-07 05:50 38.83153 109.40294 34349 ft 455 kts 203°
2026-05-07 05:50 38.76940 109.38752 34353 ft 454 kts 203°
2026-05-07 05:51 38.70742 109.37227 34354 ft 453 kts 204°
2026-05-07 05:51 38.64557 109.35701 34355 ft 452 kts 204°
2026-05-07 05:52 38.58384 109.34175 34356 ft 452 kts 204°
2026-05-07 05:52 38.52211 109.32654 34355 ft 451 kts 204°
2026-05-07 05:53 38.46054 109.31152 34353 ft 450 kts 204°
2026-05-07 05:53 38.39912 109.29658 34351 ft 450 kts 203°
2026-05-07 05:53 38.36754 109.29206 34352 ft 463 kts 196°
2026-05-07 05:54 38.33535 109.29000 34352 ft 463 kts 195°
2026-05-07 05:54 38.27107 109.28615 34349 ft 462 kts 195°
2026-05-07 05:55 38.20678 109.28224 34346 ft 462 kts 196°
2026-05-07 05:55 38.14261 109.27826 34342 ft 462 kts 196°
2026-05-07 05:56 38.07847 109.27428 34339 ft 462 kts 196°
2026-05-07 05:56 38.01473 109.27031 34340 ft 461 kts 196°
2026-05-07 05:57 37.95063 109.26641 34353 ft 461 kts 195°
2026-05-07 05:57 37.88673 109.26254 34356 ft 459 kts 196°
2026-05-07 05:58 37.82305 109.25863 34350 ft 458 kts 196°
2026-05-07 05:58 37.75938 109.25475 34342 ft 457 kts 195°
2026-05-07 05:59 37.69588 109.25092 34331 ft 457 kts 195°
2026-05-07 05:59 37.63223 109.24711 34331 ft 457 kts 195°
2026-05-07 06:00 37.56870 109.24321 34323 ft 457 kts 195°
2026-05-07 06:00 37.50520 109.23931 34322 ft 457 kts 195°
2026-05-07 06:01 37.44170 109.23553 34315 ft 457 kts 195°
2026-05-07 06:01 37.37830 109.23172 34310 ft 457 kts 195°
2026-05-07 06:02 37.31480 109.22786 34309 ft 457 kts 195°
2026-05-07 06:02 37.25137 109.22400 34311 ft 457 kts 195°
2026-05-07 06:03 37.18787 109.22022 34311 ft 455 kts 195°
2026-05-07 06:03 37.12453 109.21647 34312 ft 456 kts 195°
2026-05-07 06:04 37.06118 109.21268 34302 ft 456 kts 195°
2026-05-07 06:04 36.99782 109.20884 34310 ft 456 kts 194°
2026-05-07 06:05 36.93441 109.20508 34302 ft 456 kts 194°
2026-05-07 06:05 36.87108 109.20134 34309 ft 456 kts 194°
2026-05-07 06:06 36.80769 109.19771 34315 ft 456 kts 194°
2026-05-07 06:06 36.74431 109.19444 34306 ft 456 kts 193°
2026-05-07 06:07 36.68086 109.19122 34302 ft 456 kts 193°
2026-05-07 06:07 36.61742 109.18789 34309 ft 456 kts 193°
2026-05-07 06:08 36.55402 109.18450 34313 ft 456 kts 193°
2026-05-07 06:08 36.49063 109.18117 34325 ft 456 kts 193°
2026-05-07 06:09 36.42722 109.17792 34329 ft 456 kts 193°
2026-05-07 06:09 36.36376 109.17454 34335 ft 456 kts 194°
2026-05-07 06:10 36.30064 109.16975 34331 ft 454 kts 195°
2026-05-07 06:10 36.24820 109.16572 34333 ft 455 kts 194°
2026-05-07 06:11 36.17435 109.16079 34330 ft 455 kts 194°
2026-05-07 06:11 36.11109 109.15680 34338 ft 455 kts 194°
2026-05-07 06:12 36.04792 109.15285 34337 ft 454 kts 194°
2026-05-07 06:12 35.98479 109.14878 34330 ft 454 kts 193°
2026-05-07 06:13 35.93246 109.14533 34335 ft 453 kts 193°
2026-05-07 06:13 35.85907 109.13961 34335 ft 446 kts 198°
2026-05-07 06:13 35.82911 109.13177 34339 ft 434 kts 206°
2026-05-07 06:14 35.80085 109.11969 34342 ft 429 kts 209°
2026-05-07 06:14 35.75409 109.09877 34343 ft 430 kts 209°
2026-05-07 06:15 35.69779 109.07373 34341 ft 431 kts 209°
2026-05-07 06:15 35.64136 109.04873 34335 ft 431 kts 209°
2026-05-07 06:16 35.58490 109.02375 34334 ft 431 kts 209°
2026-05-07 06:16 35.52848 108.99874 34335 ft 431 kts 209°
2026-05-07 06:17 35.47196 108.97367 34334 ft 432 kts 209°
2026-05-07 06:17 35.41533 108.94863 34333 ft 432 kts 208°
2026-05-07 06:18 35.35876 108.92371 34332 ft 433 kts 208°
2026-05-07 06:18 35.30202 108.89877 34333 ft 433 kts 208°
2026-05-07 06:19 35.24531 108.87385 34337 ft 433 kts 208°
2026-05-07 06:19 35.18856 108.84896 34336 ft 433 kts 208°
2026-05-07 06:20 35.13181 108.82407 34334 ft 433 kts 208°
2026-05-07 06:20 35.07499 108.79916 34333 ft 434 kts 208°
2026-05-07 06:21 35.01815 108.77433 34333 ft 434 kts 208°
2026-05-07 06:21 34.96126 108.74950 34331 ft 434 kts 208°
2026-05-07 06:22 34.90434 108.72466 34331 ft 435 kts 208°
2026-05-07 06:22 34.81874 108.68735 34326 ft 436 kts 208°
2026-05-07 06:23 34.76161 108.66268 34326 ft 436 kts 207°
2026-05-07 06:23 34.70447 108.63802 34329 ft 436 kts 207°
2026-05-07 06:24 34.64723 108.61323 34327 ft 437 kts 207°
2026-05-07 06:24 34.58996 108.58841 34332 ft 437 kts 207°
2026-05-07 06:25 34.53267 108.56368 34330 ft 438 kts 207°
2026-05-07 06:25 34.47523 108.53901 34331 ft 437 kts 207°
2026-05-07 06:26 34.41773 108.51424 34329 ft 439 kts 207°
2026-05-07 06:26 34.36057 108.48967 34332 ft 439 kts 207°
2026-05-07 06:27 34.30293 108.46500 34332 ft 440 kts 207°
2026-05-07 06:27 34.24526 108.44028 34332 ft 440 kts 207°
2026-05-07 06:28 34.18760 108.41557 34333 ft 440 kts 206°
2026-05-07 06:28 34.12991 108.39092 34334 ft 440 kts 206°
2026-05-07 06:29 34.07216 108.36627 34334 ft 440 kts 206°
2026-05-07 06:29 34.01429 108.34166 34337 ft 441 kts 206°
2026-05-07 06:30 33.95641 108.31706 34335 ft 441 kts 206°
2026-05-07 06:30 33.89855 108.29247 34327 ft 441 kts 206°
2026-05-07 06:31 33.84050 108.26779 34332 ft 443 kts 206°
2026-05-07 06:31 33.78243 108.24324 34323 ft 443 kts 206°
2026-05-07 06:32 33.72417 108.21869 34332 ft 443 kts 206°
2026-05-07 06:32 33.66603 108.19415 34337 ft 443 kts 206°
2026-05-07 06:33 33.60788 108.16966 34338 ft 442 kts 206°
2026-05-07 06:33 33.54983 108.14515 34337 ft 442 kts 206°
2026-05-07 06:34 33.49187 108.12067 34333 ft 441 kts 206°
2026-05-07 06:34 33.43414 108.09587 34331 ft 438 kts 210°
2026-05-07 06:35 33.38356 108.05832 34321 ft 423 kts 225°
2026-05-07 06:35 33.33823 108.01346 34319 ft 423 kts 225°
2026-05-07 06:36 33.29276 107.96876 34317 ft 423 kts 225°
2026-05-07 06:36 33.24728 107.92416 34314 ft 423 kts 225°
2026-05-07 06:37 33.20195 107.87946 34319 ft 422 kts 225°
2026-05-07 06:37 33.15668 107.83474 34321 ft 423 kts 225°
2026-05-07 06:38 33.11136 107.79005 34321 ft 422 kts 225°
2026-05-07 06:38 33.06599 107.74551 34319 ft 423 kts 225°
2026-05-07 06:39 33.02054 107.70092 34325 ft 423 kts 225°
2026-05-07 06:39 32.97511 107.65640 34331 ft 423 kts 225°
2026-05-07 06:40 32.92970 107.61196 34328 ft 422 kts 225°
2026-05-07 06:40 32.88428 107.56761 34329 ft 422 kts 225°
2026-05-07 06:41 32.83894 107.52338 34327 ft 421 kts 225°
2026-05-07 06:41 32.79802 107.47484 34325 ft 411 kts 238°
2026-05-07 06:42 32.76503 107.41950 34318 ft 410 kts 239°
2026-05-07 06:42 32.73176 107.36441 34314 ft 410 kts 239°
2026-05-07 06:43 32.69870 107.30969 34309 ft 410 kts 239°
2026-05-07 06:43 32.66550 107.25461 34299 ft 410 kts 238°
2026-05-07 06:44 32.63232 107.19964 34312 ft 410 kts 238°
2026-05-07 06:44 32.59875 107.14501 34308 ft 410 kts 238°
2026-05-07 06:45 32.56482 107.09063 34298 ft 410 kts 238°
2026-05-07 06:45 32.53093 107.03628 34297 ft 410 kts 238°
2026-05-07 06:46 32.49683 106.98155 34297 ft 410 kts 238°
2026-05-07 06:46 32.46324 106.92750 34301 ft 410 kts 238°
2026-05-07 06:47 32.42924 106.87279 34297 ft 410 kts 238°
2026-05-07 06:47 32.39536 106.81857 34294 ft 410 kts 238°
2026-05-07 06:48 32.36160 106.76468 34298 ft 410 kts 237°
2026-05-07 06:48 32.32764 106.71053 34296 ft 410 kts 237°
2026-05-07 06:49 32.29377 106.65628 34297 ft 409 kts 238°
2026-05-07 06:49 32.25998 106.60230 34292 ft 408 kts 237°
2026-05-07 06:50 32.22610 106.54853 34289 ft 408 kts 237°
2026-05-07 06:50 32.19235 106.49475 34281 ft 408 kts 237°
2026-05-07 06:51 32.15847 106.44096 34287 ft 408 kts 237°
2026-05-07 06:51 32.12456 106.38736 34273 ft 407 kts 237°
2026-05-07 06:52 32.09074 106.33378 34267 ft 407 kts 237°
2026-05-07 06:52 32.05690 106.28030 34263 ft 407 kts 237°
2026-05-07 06:53 32.02301 106.22696 34252 ft 407 kts 237°
2026-05-07 06:53 31.98910 106.17351 34253 ft 407 kts 237°
2026-05-07 06:54 31.95524 106.12009 34247 ft 407 kts 237°
2026-05-07 06:54 31.92130 106.06674 34248 ft 407 kts 237°
2026-05-07 06:55 31.88740 106.01354 34243 ft 407 kts 237°
2026-05-07 06:55 31.85345 105.96038 34237 ft 406 kts 237°
2026-05-07 06:56 31.81963 105.90728 34238 ft 406 kts 237°
2026-05-07 06:56 31.78573 105.85423 34225 ft 406 kts 237°
2026-05-07 06:57 31.75174 105.80122 34218 ft 406 kts 237°
2026-05-07 06:57 31.71781 105.74820 34211 ft 406 kts 237°
2026-05-07 06:58 31.68958 105.70426 34214 ft 406 kts 237°
2026-05-07 06:58 31.64999 105.64282 34199 ft 406 kts 237°
2026-05-07 06:59 31.61592 105.58997 34197 ft 407 kts 237°
2026-05-07 06:59 31.58179 105.53705 34195 ft 407 kts 237°
2026-05-07 07:00 31.55313 105.49264 34194 ft 408 kts 237°
2026-05-07 07:00 31.51897 105.43967 34190 ft 407 kts 237°
2026-05-07 07:01 31.48466 105.38677 34187 ft 407 kts 237°
2026-05-07 07:01 31.45035 105.33389 34187 ft 409 kts 237°
2026-05-07 07:02 31.41594 105.28080 34189 ft 409 kts 237°
2026-05-07 07:02 31.38309 105.22662 34189 ft 408 kts 239°
2026-05-07 07:03 31.35105 105.17178 34186 ft 409 kts 240°
2026-05-07 07:03 31.31899 105.11738 34185 ft 409 kts 239°
2026-05-07 07:04 31.28637 105.06284 34187 ft 409 kts 239°
2026-05-07 07:04 31.25364 105.00835 34189 ft 409 kts 239°
2026-05-07 07:05 31.22092 104.95392 34190 ft 409 kts 239°
2026-05-07 07:05 31.18816 104.89948 34191 ft 410 kts 239°
2026-05-07 07:06 31.15536 104.84495 34189 ft 410 kts 239°
2026-05-07 07:06 31.12250 104.79045 34188 ft 411 kts 239°
2026-05-07 07:07 31.08949 104.73581 34197 ft 412 kts 239°
2026-05-07 07:07 31.05647 104.68126 34216 ft 411 kts 239°
2026-05-07 07:08 31.02313 104.62699 34212 ft 412 kts 238°
2026-05-07 07:08 30.98892 104.57342 34211 ft 412 kts 237°
2026-05-07 07:09 30.95458 104.51988 34204 ft 412 kts 238°
2026-05-07 07:09 30.92043 104.46641 34208 ft 413 kts 238°
2026-05-07 07:10 30.88620 104.41273 34213 ft 412 kts 238°
2026-05-07 07:10 30.85180 104.35929 34209 ft 413 kts 237°
2026-05-07 07:11 30.81660 104.30647 34210 ft 413 kts 236°
2026-05-07 07:11 30.78123 104.25377 34219 ft 413 kts 237°
2026-05-07 07:12 30.74599 104.20099 34209 ft 413 kts 237°
2026-05-07 07:12 30.71075 104.14824 34208 ft 413 kts 237°
2026-05-07 07:13 30.67553 104.09549 34217 ft 413 kts 237°
2026-05-07 07:13 30.64031 104.04283 34221 ft 412 kts 237°
2026-05-07 07:14 30.60625 103.98953 34200 ft 408 kts 244°
2026-05-07 07:14 30.59489 103.95968 34202 ft 403 kts 255°
2026-05-07 07:14 30.58928 103.92834 34200 ft 402 kts 265°
2026-05-07 07:15 30.58946 103.89602 34201 ft 402 kts 276°
2026-05-07 07:15 30.59556 103.86428 34201 ft 405 kts 285°
2026-05-07 07:15 30.61309 103.80212 34200 ft 406 kts 285°
2026-05-07 07:16 30.63045 103.73972 34202 ft 406 kts 284°
2026-05-07 07:16 30.64767 103.67726 34207 ft 406 kts 284°
2026-05-07 07:17 30.66346 103.61418 34214 ft 406 kts 282°
2026-05-07 07:17 30.67830 103.55090 34210 ft 406 kts 282°
2026-05-07 07:18 30.69329 103.48757 34210 ft 406 kts 282°
2026-05-07 07:18 30.70850 103.42433 34213 ft 406 kts 283°
2026-05-07 07:19 30.72380 103.36123 34212 ft 406 kts 283°
2026-05-07 07:19 30.73910 103.29788 34204 ft 407 kts 282°
2026-05-07 07:20 30.75432 103.23457 34212 ft 407 kts 282°
2026-05-07 07:20 30.76944 103.17109 34214 ft 407 kts 282°
2026-05-07 07:21 30.78454 103.10769 34214 ft 408 kts 282°
2026-05-07 07:21 30.79971 103.04416 34208 ft 407 kts 282°
2026-05-07 07:22 30.80560 102.97943 34198 ft 403 kts 268°
2026-05-07 07:22 30.80435 102.91425 34191 ft 403 kts 268°
2026-05-07 07:23 30.80324 102.84909 34188 ft 403 kts 268°
2026-05-07 07:23 30.80215 102.78395 34188 ft 403 kts 268°
2026-05-07 07:24 30.80094 102.71878 34186 ft 402 kts 267°
2026-05-07 07:24 30.79962 102.65379 34188 ft 402 kts 267°
2026-05-07 07:25 30.79766 102.55625 34176 ft 402 kts 267°
2026-05-07 07:26 30.79635 102.49122 34179 ft 403 kts 267°
2026-05-07 07:26 30.79500 102.42614 34177 ft 402 kts 267°
2026-05-07 07:27 30.79355 102.36117 34172 ft 402 kts 267°
2026-05-07 07:27 30.79208 102.29610 34177 ft 402 kts 267°
2026-05-07 07:28 30.79069 102.23104 34179 ft 403 kts 267°
2026-05-07 07:28 30.78922 102.16597 34172 ft 403 kts 267°
2026-05-07 07:29 30.78772 102.10134 34175 ft 403 kts 267°
2026-05-07 07:29 30.78613 102.03614 34176 ft 403 kts 267°
2026-05-07 07:30 30.78450 101.97083 34178 ft 404 kts 266°
2026-05-07 07:30 30.78310 101.90566 34171 ft 404 kts 270°
2026-05-07 07:31 30.78802 101.84052 34170 ft 405 kts 273°
2026-05-07 07:31 30.79349 101.77523 34180 ft 405 kts 273°
2026-05-07 07:32 30.79889 101.71003 34178 ft 404 kts 273°
2026-05-07 07:32 30.80426 101.64485 34180 ft 405 kts 272°
2026-05-07 07:33 30.80965 101.57958 34173 ft 405 kts 273°
2026-05-07 07:33 30.81503 101.51417 34172 ft 407 kts 272°
2026-05-07 07:34 30.82033 101.44882 34173 ft 406 kts 272°
2026-05-07 07:34 30.82560 101.38318 34172 ft 407 kts 272°
2026-05-07 07:35 30.83082 101.31765 34182 ft 408 kts 272°
2026-05-07 07:35 30.83598 101.25185 34188 ft 408 kts 272°
2026-05-07 07:36 30.84115 101.18615 34194 ft 408 kts 272°
2026-05-07 07:36 30.84632 101.12047 34202 ft 409 kts 272°
2026-05-07 07:37 30.85143 101.05458 34196 ft 408 kts 272°
2026-05-07 07:37 30.85649 100.98881 34197 ft 408 kts 272°
2026-05-07 07:38 30.86157 100.92299 34195 ft 409 kts 272°
2026-05-07 07:38 30.86663 100.85719 34178 ft 407 kts 272°
2026-05-07 07:39 30.87163 100.79145 34176 ft 408 kts 272°
2026-05-07 07:39 30.87661 100.72558 34180 ft 409 kts 272°
2026-05-07 07:40 30.88155 100.65960 34178 ft 409 kts 272°
2026-05-07 07:40 30.88646 100.59375 34175 ft 408 kts 272°
2026-05-07 07:41 30.89129 100.52795 34173 ft 408 kts 271°
2026-05-07 07:41 30.89611 100.46212 34169 ft 408 kts 271°
2026-05-07 07:42 30.90093 100.39630 34169 ft 408 kts 271°
2026-05-07 07:42 30.90564 100.33041 34170 ft 409 kts 271°
2026-05-07 07:43 30.91036 100.26441 34168 ft 409 kts 271°
2026-05-07 07:43 30.91503 100.19851 34174 ft 409 kts 271°
2026-05-07 07:44 30.91970 100.13241 34175 ft 409 kts 271°
2026-05-07 07:44 30.92356 100.07749 34173 ft 409 kts 271°
2026-05-07 07:45 30.92822 100.01142 34159 ft 409 kts 271°
2026-05-07 07:45 30.93308 99.94540 34155 ft 410 kts 272°
2026-05-07 07:46 30.93847 99.87933 34148 ft 410 kts 272°
2026-05-07 07:46 30.94390 99.81311 34149 ft 411 kts 271°
2026-05-07 07:47 30.94900 99.74648 34155 ft 414 kts 271°
2026-05-07 07:47 30.95411 99.67995 34153 ft 413 kts 271°
2026-05-07 07:48 30.95931 99.61332 34156 ft 414 kts 271°
2026-05-07 07:48 30.96445 99.54659 34157 ft 413 kts 272°
2026-05-07 07:49 30.96959 99.48004 34151 ft 412 kts 271°
2026-05-07 07:49 30.97462 99.41347 34149 ft 412 kts 271°
2026-05-07 07:50 30.97963 99.34680 34155 ft 414 kts 272°
2026-05-07 07:50 30.98469 99.28000 34152 ft 414 kts 271°
2026-05-07 07:51 30.98963 99.21300 34158 ft 415 kts 271°
2026-05-07 07:51 30.99454 99.14608 34157 ft 415 kts 271°
2026-05-07 07:52 30.99949 99.07899 34159 ft 416 kts 271°
2026-05-07 07:52 31.00438 99.01190 34147 ft 415 kts 272°
2026-05-07 07:53 31.00922 98.94489 34148 ft 415 kts 271°
2026-05-07 07:53 31.01396 98.87775 34147 ft 416 kts 271°
2026-05-07 07:54 31.01883 98.81063 34146 ft 416 kts 271°
2026-05-07 07:54 31.02365 98.74369 34132 ft 413 kts 272°
2026-05-07 07:55 31.02831 98.67676 34112 ft 416 kts 271°
2026-05-07 07:55 31.03320 98.60937 34118 ft 418 kts 272°
2026-05-07 07:56 31.03894 98.54193 34127 ft 419 kts 272°
2026-05-07 07:56 31.04479 98.47439 34126 ft 419 kts 272°
2026-05-07 07:57 31.05044 98.40667 34135 ft 419 kts 272°
2026-05-07 07:57 31.05596 98.33916 34130 ft 418 kts 272°
2026-05-07 07:58 31.06143 98.27146 34128 ft 420 kts 272°
2026-05-07 07:58 31.06682 98.20377 34126 ft 419 kts 272°
2026-05-07 07:59 31.07226 98.13605 34125 ft 420 kts 272°
2026-05-07 07:59 31.07772 98.06822 34125 ft 420 kts 272°
2026-05-07 08:00 31.08321 98.00034 34123 ft 420 kts 272°
2026-05-07 08:00 31.08865 97.93236 34120 ft 421 kts 272°
2026-05-07 08:01 31.09410 97.86483 34123 ft 421 kts 272°
2026-05-07 08:01 31.09944 97.79682 34123 ft 421 kts 272°
2026-05-07 08:02 31.10476 97.72878 34124 ft 421 kts 272°
2026-05-07 08:02 31.11008 97.66073 34123 ft 421 kts 272°
2026-05-07 08:03 31.11537 97.59267 34117 ft 421 kts 272°
2026-05-07 08:03 31.12058 97.52462 34115 ft 420 kts 271°
2026-05-07 08:04 31.12571 97.45666 34115 ft 422 kts 272°
2026-05-07 08:04 31.13091 97.38838 34102 ft 422 kts 271°
2026-05-07 08:05 31.13611 97.32020 34108 ft 420 kts 272°
2026-05-07 08:05 31.14118 97.25202 34107 ft 423 kts 271°
2026-05-07 08:06 31.14480 97.18374 34120 ft 419 kts 264°
2026-05-07 08:06 31.13410 97.11752 34121 ft 415 kts 255°
2026-05-07 08:07 31.12005 97.05227 34107 ft 415 kts 255°
2026-05-07 08:07 31.10615 96.98692 34101 ft 414 kts 255°
2026-05-07 08:08 31.09224 96.92185 34096 ft 414 kts 255°
2026-05-07 08:08 31.07824 96.85688 34085 ft 413 kts 255°
2026-05-07 08:09 31.06418 96.79191 34087 ft 412 kts 255°
2026-05-07 08:09 31.05007 96.72712 34088 ft 412 kts 255°
2026-05-07 08:10 31.03601 96.66236 34079 ft 412 kts 255°
2026-05-07 08:10 31.02196 96.59763 34081 ft 412 kts 255°
2026-05-07 08:11 31.00782 96.53302 34077 ft 411 kts 255°
2026-05-07 08:11 30.99376 96.46853 34087 ft 411 kts 255°
2026-05-07 08:12 30.97967 96.40394 34084 ft 411 kts 255°
2026-05-07 08:12 30.96591 96.33938 34084 ft 411 kts 255°
2026-05-07 08:13 30.95232 96.27479 34076 ft 410 kts 255°
2026-05-07 08:13 30.93876 96.21028 34075 ft 410 kts 255°
2026-05-07 08:14 30.92511 96.14589 34076 ft 410 kts 255°
2026-05-07 08:14 30.91137 96.08158 34076 ft 410 kts 255°
2026-05-07 08:15 30.89759 96.01740 34061 ft 411 kts 255°
2026-05-07 08:15 30.88358 95.95230 34036 ft 426 kts 255°
2026-05-07 08:16 30.86903 95.88478 34023 ft 422 kts 255°
2026-05-07 08:16 30.85513 95.82008 34031 ft 410 kts 255°
2026-05-07 08:17 30.84122 95.75573 34027 ft 409 kts 254°
2026-05-07 08:17 30.82747 95.69140 34034 ft 411 kts 255°
2026-05-07 08:18 30.81437 95.62695 34017 ft 409 kts 255°
2026-05-07 08:18 30.80118 95.56264 34020 ft 408 kts 255°
2026-05-07 08:19 30.78784 95.49841 34023 ft 410 kts 255°
2026-05-07 08:19 30.77444 95.43396 34025 ft 409 kts 255°
2026-05-07 08:20 30.76109 95.36978 34021 ft 407 kts 255°
2026-05-07 08:20 30.74772 95.30582 34018 ft 408 kts 255°
2026-05-07 08:21 30.73425 95.24170 34018 ft 408 kts 255°
2026-05-07 08:21 30.72075 95.17741 34023 ft 409 kts 255°
2026-05-07 08:22 30.70727 95.11317 34012 ft 410 kts 254°
2026-05-07 08:22 30.69365 95.04891 34016 ft 410 kts 254°
2026-05-07 08:23 30.68003 94.98455 34018 ft 410 kts 254°
2026-05-07 08:23 30.66639 94.92018 34011 ft 410 kts 254°
2026-05-07 08:24 30.65270 94.85579 34018 ft 411 kts 254°
2026-05-07 08:24 30.63902 94.79138 34018 ft 411 kts 254°
2026-05-07 08:25 30.62531 94.72715 34019 ft 411 kts 254°
2026-05-07 08:25 30.61160 94.66309 34019 ft 411 kts 254°
2026-05-07 08:26 30.59079 94.56648 34033 ft 411 kts 253°
2026-05-07 08:26 30.57689 94.50215 34036 ft 410 kts 253°
2026-05-07 08:27 30.56299 94.43802 34028 ft 410 kts 253°
2026-05-07 08:27 30.54908 94.37394 34026 ft 409 kts 253°
2026-05-07 08:28 30.53519 94.30984 34022 ft 409 kts 253°
2026-05-07 08:28 30.52126 94.24596 34012 ft 408 kts 253°
2026-05-07 08:29 30.50741 94.18223 34010 ft 408 kts 253°
2026-05-07 08:29 30.49624 94.12919 34007 ft 408 kts 254°
2026-05-07 08:30 30.48093 94.05432 34005 ft 408 kts 254°
2026-05-07 08:30 30.47006 94.00135 34009 ft 407 kts 254°
2026-05-07 08:31 30.45445 93.92677 34004 ft 407 kts 253°
2026-05-07 08:31 30.44323 93.87376 33995 ft 408 kts 253°
2026-05-07 08:32 30.42977 93.80987 33993 ft 407 kts 253°
2026-05-07 08:32 30.41638 93.74596 34000 ft 408 kts 253°
2026-05-07 08:33 30.40293 93.68210 33997 ft 409 kts 253°
2026-05-07 08:33 30.38941 93.61817 34000 ft 408 kts 253°
2026-05-07 08:34 30.38274 93.59054 33993 ft 406 kts 249°